Weather History for Ottumwa, IA

Change the Weather History Date:

Monday, August 25, 2014

  Actual Average Record
Temperature  
Mean Temperature 84 °F 72 °F  
Max Temperature 92 °F 83 °F 106 °F (1936)
Min Temperature 75 °F 61 °F 42 °F (1934)
Degree Days  
Heating Degree Days 0 0  
Month to date heating degree days 0 0  
Since 1 June heating degree days 22 23  
Since 1 July heating degree days 13 2  
Cooling Degree Days 19 7  
Month to date cooling degree days 192 215  
Year to date cooling degree days 681 794  
Since 1 June cooling degree days 570 730  
Growing Degree Days 32 (Base 50)    
Moisture  
Dew Point 73 °F    
Average Humidity 77    
Maximum Humidity 94    
Minimum Humidity 59    
Precipitation  
Precipitation T in 0.15 in 3.21 in (1987)
Month to date precipitation 2.83 3.74  
Year to date precipitation 26.94 25.83  
Sea Level Pressure  
Sea Level Pressure 29.93 in    
Wind  
Wind Speed 6 mph (SW)    
Max Wind Speed 12 mph    
Max Gust Speed 15 mph    
Visibility 10 miles    
Events Rain , Thunderstorm    
T = Trace of Precipitation, MM = Missing Value Source: NWS Daily Summary

Daily Weather History Graph

Daily Weather History Graph

Search for Another Location

Airport:

Trip Planner

Search our weather history database for the weather conditions in past years. The results will help you decide how hot, cold, wet, or windy it might be!

Date:

Astronomy

Aug. 25, 2014 Rise Set
Actual Time 6:29 AM CDT 7:53 PM CDT
Civil Twilight 6:00 AM CDT 8:22 PM CDT
Nautical Twilight 5:26 AM CDT 8:56 PM CDT
Astronomical Twilight 4:49 AM CDT 9:33 PM CDT
Moon 6:35 AM CDT 7:43 PM CDT
Length of Visible Light 14h 21m
Length of Day
13h 24m
New Moon, 0% of the Moon is Illuminated
Aug 25
New Moon
Sep 2
First Quarter
Sep 8
Full
Sep 15
Last Quarter
Sep 24
New

Hourly Weather History & Observations

Time (CDT) Temp. Heat Index Dew Point Humidity Pressure Visibility Wind Dir Wind Speed Gust Speed Precip Events Conditions
12:53 AM 78.1 °F - 72.0 °F 81% 29.88 in 10.0 mi South 8.1 mph - N/A   Clear
1:53 AM 77.0 °F - 73.0 °F 88% 29.89 in 10.0 mi South 8.1 mph - N/A   Clear
2:53 AM 75.9 °F - 72.0 °F 87% 29.88 in 10.0 mi South 6.9 mph - N/A   Clear
3:53 AM 75.2 °F - 71.6 °F 89% 29.89 in 10.0 mi South 8.1 mph - N/A   Clear
4:53 AM 75.0 °F - 72.0 °F 90% 29.89 in 10.0 mi South 6.9 mph - N/A   Clear
5:53 AM 75.0 °F - 71.1 °F 87% 29.89 in 10.0 mi South 8.1 mph - N/A   Clear
6:53 AM 75.0 °F - 72.0 °F 90% 29.91 in 10.0 mi South 6.9 mph - N/A   Clear
7:53 AM 77.0 °F - 71.1 °F 82% 29.91 in 10.0 mi South 4.6 mph - N/A   Clear
8:53 AM 78.8 °F - 71.6 °F 78% 29.94 in 10.0 mi SSW 3.5 mph - N/A   Mostly Cloudy
9:53 AM 82.0 °F 86.7 °F 72.0 °F 71% 29.94 in 9.0 mi WSW 5.8 mph - 0.00 in Rain Light Rain
10:36 AM 82.0 °F 87.9 °F 73.9 °F 76% 29.97 in 10.0 mi SSW 6.9 mph - 0.00 in Thunderstorm Scattered Clouds
10:53 AM 84.0 °F 90.2 °F 73.0 °F 69% 29.95 in 10.0 mi SW 6.9 mph - 0.00 in   Clear
11:53 AM 86.0 °F 93.0 °F 73.0 °F 65% 29.95 in 10.0 mi SW 8.1 mph - N/A   Clear
12:53 PM 88.0 °F 95.6 °F 73.0 °F 61% 29.94 in 10.0 mi WSW 10.4 mph - N/A   Clear
1:53 PM 90.0 °F 97.9 °F 73.0 °F 57% 29.94 in 10.0 mi WNW 9.2 mph - N/A   Partly Cloudy
2:53 PM 88.0 °F 94.7 °F 72.0 °F 59% 29.92 in 10.0 mi West 5.8 mph - N/A   Scattered Clouds
3:53 PM 90.0 °F 97.9 °F 73.0 °F 57% 29.91 in 10.0 mi NNW 4.6 mph - N/A   Scattered Clouds
4:53 PM 89.1 °F 98.0 °F 73.9 °F 61% 29.90 in 10.0 mi SSW 4.6 mph - N/A   Clear
5:53 PM 89.1 °F 98.0 °F 73.9 °F 61% 29.93 in 10.0 mi WNW 3.5 mph - N/A   Partly Cloudy
6:53 PM 87.1 °F 97.3 °F 75.9 °F 69% 29.95 in 10.0 mi NW 4.6 mph - N/A   Scattered Clouds
7:53 PM 82.0 °F 90.2 °F 77.0 °F 85% 29.94 in 10.0 mi Calm Calm - N/A   Clear
8:53 PM 78.8 °F - 75.2 °F 89% 29.97 in 10.0 mi Calm Calm - N/A   Clear
9:53 PM 78.8 °F - 75.2 °F 89% 29.98 in 10.0 mi SE 3.5 mph - N/A   Clear
10:53 PM 75.9 °F - 73.9 °F 94% 29.98 in 10.0 mi South 3.5 mph - N/A   Clear
11:53 PM 75.9 °F - 73.9 °F 94% 30.00 in 9.0 mi West 5.8 mph - N/A   Clear